This demonstration page uses our WeatherBlox Daily Observations layout. Learn more.

Left ArrowRight Arrow

Hourly Observations for July 12, 2018

Temp ( °F °C ) Dew Point ( °F °C ) Humidity (%) Winds ( mph kmh ) Pressure ( in mb ) Visibility ( mi km ) Precip ( " mm )
12:53 am 00:53 Clear 78 25.6 67 19.4 69 69 S 8 13 29.99 1016 10 16 0.00 0.00
1:53 am 01:53 Clear 77 25 67 19.4 71 71 S 8 13 29.99 1016 10 16 0.00 0.00
2:53 am 02:53 Clear 76 24.4 67 19.4 74 74 S 8 13 29.98 1015 10 16 0.00 0.00
3:53 am 03:53 Clear 75 23.9 67 19.4 76 76 S 7 11 29.97 1015 10 16 0.00 0.00
4:53 am 04:53 Clear 74 23.3 67 19.4 79 79 S 7 11 29.97 1015 10 16 0.00 0.00
5:53 am 05:53 Clear 74 23.3 67 19.4 79 79 S 6 9 29.97 1015 10 16 0.00 0.00
6:53 am 06:53 Sunny 74 23.3 67 19.4 79 79 S 6 9 29.98 1015 10 16 0.00 0.00
7:53 am 07:53 Sunny 77 25 69 20.6 77 77 S 8 13 29.98 1015 10 16 0.00 0.00
8:53 am 08:53 Sunny 81 27.2 70 21.1 69 69 SSW 9 15 29.99 1016 10 16 0.00 0.00
9:53 am 09:53 Sunny 84 28.9 71 21.7 65 65 SSW 8 13 30.00 1016 10 16 0.00 0.00
10:53 am 10:53 Sunny 88 31.1 71 21.7 57 57 S 12 19 30.00 1016 10 16 0.00 0.00
11:53 am 11:53 Sunny 90 32.2 70 21.1 52 52 SSE 12 19 30.00 1016 10 16 0.00 0.00
12:53 pm 12:53 Sunny 93 33.9 71 21.7 49 49 S 10 17 30.00 1016 10 16 0.00 0.00
1:53 pm 13:53 Sunny 93 33.9 70 21.1 47 47 S 12 19 29.99 1016 10 16 0.00 0.00
2:53 pm 14:53 Sunny 95 35 68 20 41 41 S 13 20 29.97 1015 10 16 0.00 0.00
3:53 pm 15:53 Sunny 95 35 68 20 41 41 SE 9 15 29.96 1015 10 16 0.00 0.00
4:53 pm 16:53 Sunny 90 32.2 69 20.6 50 50 SE 13 20 29.95 1014 10 16 0.00 0.00
5:29 pm 17:29 Partly Cloudy with Nearby Thunderstorms 90 32.2 69 20.6 50 50 ESE 13 20 29.85 1011 10 16 0.00 0.00
5:45 pm 17:45 Mostly Sunny 90 32 70 21 52 52 SE 14 22 29.85 1011 10 16 0.00 0.00
5:53 pm 17:53 Sunny 91 32.8 71 21.7 52 52 SE 12 19 29.93 1013 10 16 0.00 0.00
6:09 pm 18:09 Mostly Cloudy with Nearby Thunderstorms 83 28.3 69 20.6 63 63 SSW 10 17 29.88 1012 10 16 0.00 0.03
6:24 pm 18:24 Cloudy with Light Rain 84 29 72 22 66 66 VRB 5 7 29.88 1012 10 16 0.00 0.00
6:53 pm 18:53 Sunny 89 31.7 69 20.6 52 52 SSE 7 11 29.91 1013 10 16 0.00 0.03
7:53 pm 19:53 Sunny 89 31.7 69 20.6 52 52 SE 6 9 29.92 1013 10 16 0.00 0.00
8:53 pm 20:53 Sunny 86 30 69 20.6 57 57 ESE 6 9 29.92 1013 10 16 0.00 0.00
9:53 pm 21:53 Clear 85 29.4 70 21.1 61 61 SE 8 13 29.93 1014 10 16 0.00 0.00
10:53 pm 22:53 Clear 84 28.9 68 20 59 59 SSE 12 19 29.96 1015 10 16 0.00 0.00
11:53 pm 23:53 Clear 81 27.2 67 19.4 62 62 S 8 13 29.96 1015 10 16 0.00 0.00

Powered by AerisWeather